Preview of NWS' New Version of Forecast
This preview is not operational and should not be used for support decisions.

Regional Weather Roundup (RWR)

Issued by National Weather Service (NWS)

                            
000
ASUS46 KSEW 181410
RWRWA 

WASHINGTON REGIONAL WEATHER ROUNDUP
NATIONAL WEATHER SERVICE SEATTLE WA
700 AM PDT THU APR 18 2019

NOTE:"FAIR" INDICATES FEW OR NO CLOUDS BELOW 12,000 FEET WITH NO 
SIGNIFICANT WEATHER AND/OR OBSTRUCTIONS TO VISIBILITY.

WAZ507-509-555>559-181500-
SEATTLE, TACOMA, EVERETT, AND VICINITY
  
CITY           SKY/WX    TMP DP  RH WIND       PRES   REMARKS
EVERETT        LGT RAIN  51  47  86 VRB5      30.25R                  
BOEING FIELD   LGT RAIN  54  47  77 CALM      30.26R                  
RENTON         LGT RAIN  53  48  83 CALM      30.25S                  
SEATAC AIRPORT LGT RAIN  53  46  77 S3        30.25S                  
JBLM-MCCHORD   CLOUDY    51  51 100 CALM      30.28                   
PUYALLUP       CLOUDY    52  50  93 CALM      30.26R                  
BREMERTON      RAIN      50  49  96 CALM      30.24S FOG              
JBLM-FT LEWIS  CLOUDY    52  52  99 CALM      30.25R                  
TACOMA NARROWS CLOUDY    51  48  89 E3        30.26R                  
$$
 
WAZ001-503-506-510-514-515-181500-
NORTH INTERIOR
  
CITY           SKY/WX    TMP DP  RH WIND       PRES   REMARKS
BELLINGHAM     LGT RAIN  51  48  89 E6        30.23F FOG              
FRIDAY HARBOR  LGT RAIN  50  48  93 NE5       30.23S                  
EASTSOUND      LGT RAIN  52  50  93 E9        30.21F                  
PORT ANGELES   LGT RAIN  49  48  97 E5        30.21F                  
EDIZ HOOK      RAIN      48  48  99 E3        30.21F                  
PORT TOWNSEND  CLOUDY    50  50 100 CALM      30.22S FOG              
NAS WHIDBEY    LGT RAIN  54  48  80 E9        30.27S                  
ARLINGTON      RAIN      50  49  96 CALM      30.26R                  
BURLINGTON     CLOUDY    50  48  93 CALM      30.25S                  
$$
 
WAZ020-022-039-040-504-511-512-181500-
SOUTHWEST INTERIOR
  
CITY           SKY/WX    TMP DP  RH WIND       PRES   REMARKS
SHELTON        LGT RAIN  51  48  89 CALM      30.22F                  
OLYMPIA        LGT RAIN  50  46  86 S3        30.24F                  
CHEHALIS       CLOUDY    52  48  87 CALM      30.25S                  
KELSO          CLOUDY    50  45  83 SE6       30.27S                  
VANCOUVER      MOCLDY    46  44  93 CALM      30.27S                  
SCAPPOOSE, OR  CLOUDY    49  46  90 CALM      30.26F                  
PORTLAND, OR   MOCLDY    48  44  86 CALM      30.28S                  
$$
 
WAZ021-516-517-181500-
WASHINGTON COAST
  
CITY           SKY/WX    TMP DP  RH WIND       PRES   REMARKS
FORKS          LGT RAIN  50  49  96 SE6       30.18S                  
HOQUIAM        CLOUDY    51  51 100 E5        30.23F                  
ASTORIA, OR    LGT RAIN  49  47  93 CALM      30.23S                  
$$
 
WAZ019-023-024-040-567>569-181500-
CASCADE MOUNTAINS AND COLUMBIA GORGE
  
CITY           SKY/WX    TMP DP  RH WIND       PRES   REMARKS
STAMPEDE PASS  NOT AVBL                                               
TROUTDALE, OR  MOCLDY    48  44  86 CALM      30.27S                  
HOOD RIVER, OR SUNNY     41  39  93 MISG      30.28S                  
THE DALLES, OR PTCLDY    44  41  89 CALM      30.27S                  
$$

WAZ026-027-041>044-520-521-181500-
EAST SLOPES
  
CITY           SKY/WX    TMP DP  RH WIND       PRES   REMARKS
OMAK           MOCLDY    50  40  68 E3        30.22R                  
WENATCHEE      MOCLDY    51  37  58 CALM      30.21S                  
ELLENSBURG     CLOUDY    48  40  73 CALM      30.23S                  
YAKIMA         MOCLDY    49  42  77 CALM      30.24S                  
SUNNYSIDE ARPT CLOUDY    45  43  92 CALM      30.25R                  
YAKIMA TC      LGT RAIN  47  42  81 CALM      30.23R                  
$$

WAZ028-034-035-181500-
COLUMBIA BASIN
  
CITY           SKY/WX    TMP DP  RH WIND       PRES   REMARKS
EPHRATA        CLOUDY    46  39  76 N7        30.23R                  
MOSES LAKE     CLOUDY    49  39  68 E3        30.24R                  
PASCO          PTCLDY    46  41  82 CALM      30.25S                  
RICHLAND ARPT  PTSUNNY   44  42  91 CALM      30.25S                  
HERMISTON, OR  CLEAR     48  41  76 S3        30.24S                  
$$

WAZ036>038-181500-
NORTHEAST WASHINGTON
  
CITY           SKY/WX    TMP DP  RH WIND       PRES   REMARKS
SPOKANE GEIGER MOCLDY    44  36  73 S8        30.26R                  
SPOKANE FELTS  PTCLDY    47  39  74 NE3       30.26R                  
FAIRCHILD AFB  PTCLDY    45  43  93 S10       30.24S                  
COEURDALENE,ID MOSUNNY   44  39  82 S8        30.27R                  
DEER PARK      CLOUDY    46  40  79 CALM      30.27R                  
$$

WAZ029>033-181500-
SOUTHEAST WASHINGTON
  
CITY           SKY/WX    TMP DP  RH WIND       PRES   REMARKS
PULLMAN        CLEAR     45  39  79 E10       30.29S                  
LEWISTON, ID   CLEAR     47  40  76 E7        30.30S                  
WALLA WALLA    CLEAR     50  40  68 E6        30.24F                  
PENDLETON, OR  CLEAR     46  40  79 SE8       30.25S                  
$$